[Date Prev][Date Next][Thread Prev][Thread Next] - [Date Index][Thread Index][Author Index]

2 Line ISS Keps 8-2



ISS
1 25544U 98067A   05214.39160483  .00000874  00000-0  11251-4 0   552
2 25544 051.6454 024.3077 0002186 196.9225 255.3008 15.71684711382952
----
Via the sarex mailing list at AMSAT.ORG courtesy of AMSAT-NA.
To unsubscribe, send "unsubscribe sarex" to Majordomo@amsat.org



AMSAT Top AMSAT Home